Hourly Data Report for October 25, 2013

All times are specified in Local Standard Time (LST). Add 1 hour to adjust for Daylight Saving Time where and when it is observed.

EMERSON AUTO
MANITOBA

49°00'00.000" N
97°14'15.000" W
242.00 m
5020881
71560
WEX

Download Data

Hourly Data (October 2013)
Hourly Data Report for October 25, 2013
Temp Definition
°C
Dew Point Temp Definition
°C
Rel Hum Definition
%
Wind Dir Definition
10's deg

Wind Spd Definition
km/h
Visibility Definition
km
Stn Press Definition
kPa
Hmdx Definition


Wind Chill Definition


Weather Definition


TIME
00:00 -2.4 -3.9 89 19 13   99.18   -7 LegendNANA
01:00 -2.9 -4.3 90 19 13   99.09   -8 LegendNANA
02:00 -2.7 -4.2 89 19 13   99.06   -7 LegendNANA
03:00 -1.5 -3.4 87 19 15   98.91   -6 LegendNANA
04:00 -1.2 -3.0 88 19 19   98.82   -7 LegendNANA
05:00 -0.7 -2.7 86 18 22   98.69   -6 LegendNANA
06:00 -0.5 -3.0 83 18 32   98.40   -7 LegendNANA
07:00 -0.1 -2.5 84 18 33   98.16   -7 LegendNANA
08:00 1.2 -1.6 82 19 30   97.97     LegendNANA
09:00 2.3 -1.2 78 20 28   97.95     LegendNANA
10:00 4.2 -0.1 74 21 22   97.83     LegendNANA
11:00 8.9 1.7 61 25 24   97.69     LegendNANA
12:00 11.5 2.7 55 25 26   97.60     LegendNANA
13:00 13.0 1.6 46 30 39   97.53     LegendNANA
14:00 14.2 -0.7 36 31 37   97.54     LegendNANA
15:00 13.0 -0.9 38 31 41   97.62     LegendNANA
16:00 11.2 0.9 49 35 28   97.70     LegendNANA
17:00 8.9 2.8 66 34 39   97.85     LegendNANA
18:00 5.1 -0.1 69 34 54   98.06     LegendNANA
19:00 3.9 -1.2 69 33 35   98.19     LegendNANA
20:00 3.2 -1.1 73 34 28   98.24     LegendNANA
21:00 2.6 -1.8 73 34 24   98.31     LegendNANA
22:00 2.1 -2.4 72 32 22   98.39     LegendNANA
23:00 1.9 -3.3 68 30 19   98.41     LegendNANA

Notes on Data Quality.

Legend

  • E = Estimated
  • M = Missing
  • NA = Not Available
  • ‡ = Partner data that is not subject to review by the National Climate Archives
Date modified: